CZ-3B DEB, 42464

Orbit data source: Space-Track

CZ-3B DEB, 42464 is space debris in HEO originally from a launch on Sat, 04 Sep 2010 UTC launched from the Xichang Space Center, China (XSC). Debris objects in space refer to the collection of defunct objects orbiting the Earth. Examples of debris include non-operational satellites, rocket bodies, and fragments generated from explosions, collisions, or faulty payload assembly.

Loading next visibility...
CZ-3B DEB details
Identifier
42464, 2010-042AF
Orbit
HEO
Last TLE update1 day ago
Origin
Flag of CNCASC (CN / PRC)
ManufacturerCALT
MissionSpacecraft
Bus & MotorUnknown
MassUnknown
Launch date (UTC)
2010-09-04 (14 years ago)
Launch vehicleUnknown
Launch site
Xichang Space Center, China (XSC)
Object type
Payload
Rocket body
Debris
Shape & HBRUnknown
Radar Cross SectionMedium (>0.1 m² and <1 m²)

Expand to show TLE details & history

TLE from 1 day ago
0 CZ-3B DEB
1 42464U 10042AF  24360.45541310 -.00000095  00000-0  00000-0 0  9990
2 42464  25.1070  40.8901 7378841 182.6616 168.0380  1.82447152 72691
Epoch: 2024-12-25T10:55Z
Definitive object data (Epoch: 2024-12-25T10:55:47.691Z)
Latitude
Longitude142.50295°
Altitude42,624.883 km
Speed1.476 km/s
True Right ascension02h 43m 36s
True Declination0° 00' 00"
Sunlit
Object was in daylight at TLE epoch
Visualization TLE readout
Latitude2.83992°
Longitude148.29646°
Altitude42,524.485 km
Speed1.487 km/s
Apparent Right ascension02h 58m 45s
Apparent Declination-1° 46' 11"
Sunlit
Object is in daylight
Visualization observer readout
Local Sidereal Time13:37:02
Azimuth328.857° NNW
Elevation-47.58°
Doppler factor1
Orbital elements
Apogee altitude42,794.285 km
Perigee altitude1,038.28 km
Semi-major axis28,294.42 km
Eccentricity0.7378841
Inclination25.107°
RAAN40.8901°
Arg. of periapsis182.6616°
True anomaly177.3214°
Mean anomaly168.038°
Eccentric anomaly173.10987°
Mean motion0.45603 °/min
BSTARUnknown
Orbital period789.42 mins
Loading maneuver chart data...
Loading historical data...
Loading historical data...
Loading historical data...
Loading historical data...
Loading historical data...
Loading historical data...
Loading historical data...

CZ-3B DEB Visibility forecast

Observer location: undefined°, undefined

Span
Click to sort rows by Start time (UTC) header in descending order
Start Az.
Max El. time (UTC)
Max El. Az.
Max El.
End time (UTC)
End Az.
657 mins2024-12-26 22:12:13.690Z133.728° SE2024-12-27 08:44:13.690Z186.89° SSW42.093°2024-12-27 09:09:13.690Z108.969° ESE
|